GW6542 Weather Reports


time (UTC)temp
F
wind
direction
speed
knots
gust
knots
rain 1hr
in
rain 24hr
in
rain mn
in
humidity
%
barometer
mb
20260505194605 61 241 2.6 4.3 0.00 0.00 0.00 69 1017.0
20260505193053 61 273 0.0 4.3 0.00 0.00 0.00 70 1017.0
20260505191603 60 0 0.0 4.3 0.00 0.00 0.00 72 1017.1
20260505190056 60 191 0.0 2.6 0.00 0.00 0.00 73 1017.1
20260505184551 60 0 0.9 3.5 0.00 0.00 0.00 73 1017.0
20260505183053 59 111 0.9 2.6 0.00 0.00 0.00 74 1017.0
20260505181554 59 333 0.0 1.7 0.00 0.00 0.00 75 1016.9
20260505180100 58 0 0.0 1.7 0.00 0.00 0.00 76 1016.9
20260505174552 58 288 0.9 2.6 0.00 0.00 0.00 76 1016.7
20260505173110 58 306 0.9 2.6 0.00 0.00 0.00 76 1016.7
20260505171605 57 0 0.0 3.5 0.00 0.00 0.00 77 1016.6
20260505170049 57 194 0.0 1.7 0.00 0.00 0.00 77 1016.6
20260505164558 57 0 0.9 2.6 0.00 0.00 0.00 78 1016.6
20260505163053 56 234 0.9 2.6 0.00 0.00 0.00 79 1016.5
20260505161555 55 0 0.9 2.6 0.00 0.00 0.00 81 1016.5
20260505153053 55 0 0.0 1.7 0.00 0.00 0.00 82 1016.3
20260505151553 55 202 0.0 1.7 0.00 0.00 0.00 83 1016.4
20260505150108 54 240 0.9 3.5 0.00 0.00 0.00 83 1016.4
20260505124556 54 0 0.9 3.5 0.00 0.00 0.00 84 1015.2
20260505123056 54 184 1.7 3.5 0.00 0.00 0.00 83 1015.2
20260505121620 54 256 1.7 3.5 0.00 0.00 0.00 83 1015.2
20260505120053 54 234 1.7 6.1 0.00 0.00 0.00 83 1015.2
20260505114550 54 219 2.6 5.2 0.00 0.00 0.00 83 1015.1
20260505113057 54 248 1.7 5.2 0.00 0.00 0.00 82 1015.0
20260505111554 54 215 2.6 6.1 0.00 0.00 0.00 83 1015.0
20260505101551 54 194 0.9 3.5 0.00 0.00 0.00 84 1014.7
20260505100123 53 227 2.6 4.3 0.00 0.00 0.00 84 1014.7
20260505094548 54 250 2.6 5.2 0.00 0.00 0.00 84 1014.7
20260505093049 54 227 2.6 6.1 0.00 0.00 0.00 84 1014.6
20260505091615 53 202 1.7 4.3 0.00 0.00 0.00 85 1014.6
20260505090100 53 165 1.7 3.5 0.00 0.00 0.00 85 1014.5
20260505084550 53 197 0.9 2.6 0.00 0.00 0.00 85 1014.4
20260505083054 53 192 0.9 4.3 0.00 0.00 0.00 84 1014.4
20260505081552 53 245 0.9 3.5 0.00 0.00 0.00 85 1014.3
20260505080054 53 229 1.7 4.3 0.00 0.00 0.00 85 1014.3
20260505074553 53 206 1.7 5.2 0.00 0.00 0.00 84 1014.2
20260505073058 53 197 1.7 4.3 0.00 0.00 0.00 84 1014.0
20260505071552 54 191 1.7 4.3 0.00 0.00 0.00 84 1013.9
20260505070052 54 190 0.9 4.3 0.00 0.00 0.00 83 1013.8
20260505064552 54 186 1.7 4.3 0.00 0.00 0.00 83 1013.7
20260505063054 54 218 0.9 2.6 0.00 0.00 0.00 83 1013.6
20260505061549 54 246 3.5 6.1 0.00 0.00 0.00 83 1013.6
20260505060056 54 242 3.5 7.0 0.00 0.00 0.00 83 1013.5
20260505054616 55 228 5.2 8.7 0.00 0.00 0.00 82 1013.6
20260505053053 55 246 7.8 11.3 0.00 0.00 0.00 81 1013.3
20260505051552 55 243 8.7 13.9 0.00 0.00 0.00 79 1013.3
20260505041601 57 273 10.4 13.9 0.00 0.00 0.00 76 1012.6
20260505040052 57 217 7.8 12.2 0.00 0.00 0.00 76 1012.3
20260505034553 58 257 7.8 13.0 0.00 0.00 0.00 74 1012.2
20260505033053 59 254 8.7 13.0 0.00 0.00 0.00 73 1012.0
20260505031555 60 230 6.1 13.0 0.00 0.00 0.00 71 1011.8
20260505030107 62 255 5.2 12.2 0.00 0.00 0.00 69 1011.5
20260505024607 63 279 6.1 13.9 0.00 0.00 0.00 68 1011.2
20260505023104 65 252 5.2 12.2 0.00 0.00 0.00 67 1011.0
20260505021601 66 244 7.0 12.2 0.00 0.00 0.00 65 1011.0
20260505014556 68 242 7.0 10.4 0.00 0.00 0.00 63 1011.0
20260505013056 70 259 6.1 10.4 0.00 0.00 0.00 61 1011.0
20260505011557 70 282 7.0 12.2 0.00 0.00 0.00 60 1011.0
20260505010108 72 276 6.1 10.4 0.00 0.00 0.00 58 1011.1
20260505004553 73 227 3.5 9.6 0.00 0.00 0.00 57 1011.1
20260505003104 73 190 4.3 7.0 0.00 0.00 0.00 57 1011.1
20260505001556 73 210 2.6 7.8 0.00 0.00 0.00 57 1011.0
20260505000100 72 112 2.6 8.7 0.00 0.00 0.00 61 1011.3
20260504234554 72 163 5.2 9.6 0.00 0.00 0.00 61 1011.4
20260504233054 72 140 5.2 9.6 0.00 0.00 0.00 60 1011.5
20260504231551 72 148 4.3 8.7 0.00 0.00 0.00 60 1011.5
20260504230109 71 157 4.3 9.6 0.00 0.00 0.00 62 1011.8
20260504224606 70 160 4.3 10.4 0.00 0.00 0.00 61 1011.9
20260504223051 70 172 6.1 11.3 0.00 0.00 0.00 62 1012.0
20260504221551 69 125 4.3 11.3 0.00 0.00 0.00 62 1012.2
20260504220057 69 180 3.5 8.7 0.00 0.00 0.00 62 1012.3
20260504214550 68 134 3.5 10.4 0.00 0.00 0.00 63 1012.5
20260504213058 68 148 5.2 10.4 0.00 0.00 0.00 62 1012.8
20260504211557 67 107 5.2 8.7 0.00 0.00 0.00 64 1012.9
20260504210104 67 146 7.0 11.3 0.00 0.00 0.00 64 1013.1
20260504204602 66 155 5.2 9.6 0.00 0.00 0.00 67 1013.4
20260504203049 65 121 4.3 9.6 0.00 0.00 0.00 67 1013.6
20260504201552 65 128 4.3 9.6 0.00 0.00 0.00 67 1013.6